Simultaneous Nadir Overpasses (SNOs) Predictions

Prediction of SNOs between NOAA-20 and NOAA-19 Satellite Orbit:

Table of predicted SNOs for the next 14.0 days since TLE Epoch: 6/8/2018
Index Date (NOAA-20) Time (NOAA-20) Lat,Lon (NOAA-20) SZA (NOAA-20 ) Date (NOAA-19) Time (NOAA-19) Lat,Lon (NOAA-19) SZA (NOAA-19 ) Distance(km) Time Diff (sec)
1 06/18/2018 04:28:33 -80.53,-112.22 119.90 06/18/2018 04:27:25 -80.53,-112.24 119.85 1.09 68
2 06/18/2018 05:19:18 80.53, 55.11 60.10 06/18/2018 05:18:21 80.53, 55.00 60.15 2.22 57
3 06/18/2018 06:10:03 -80.53,-137.64 119.89 06/18/2018 06:09:26 -80.54,-137.69 119.86 1.29 37
4 06/18/2018 07:00:48 80.53, 29.68 60.11 06/18/2018 07:00:22 80.54, 29.55 60.15 2.59 26
5 06/18/2018 07:51:32 -80.53,-163.06 119.88 06/18/2018 07:51:26 -80.54,-163.14 119.87 1.64 6
6 06/18/2018 08:42:17 80.53, 4.26 60.12 06/18/2018 08:42:22 80.54, 4.10 60.14 2.99 5
7 06/18/2018 09:33:02 -80.54, 171.51 119.88 06/18/2018 09:33:27 -80.54, 171.41 119.87 2.07 25
8 06/18/2018 10:23:47 80.54, -21.17 60.13 06/18/2018 10:24:23 80.54, -21.35 60.13 3.40 36
9 06/18/2018 11:14:32 -80.54, 146.09 119.87 06/18/2018 11:15:28 -80.54, 145.95 119.88 2.54 56




NCC Satellite Simultaneous Nadir Overpasses (SNOs) Prediction Service
